Weather History for Windom, MN

Change the Weather History Date:

Thursday, December 26, 2013

  Actual Average Record
Temperature  
Mean Temperature 24 °F -  
Max Temperature 32 °F 22 °F 48 °F (1956)
Min Temperature 17 °F 4 °F -20 °F (1990)
Degree Days  
Heating Degree Days 40    
Moisture  
Dew Point 22 °F    
Average Humidity 85    
Maximum Humidity 93    
Minimum Humidity 75    
Precipitation  
Precipitation 0.03 in - - ()
Sea Level Pressure  
Sea Level Pressure 30.07 in    
Wind  
Wind Speed 7 mph (SW)    
Max Wind Speed 14 mph    
Max Gust Speed -    
Visibility 10 miles    
Events      
Averages and records for this station are not official NWS values.
T = Trace of Precipitation, MM = Missing Value Source: NWS Daily Summary

Daily Weather History Graph

Daily Weather History Graph

Search for Another Location

Airport:

Trip Planner

Search our weather history database for the weather conditions in past years. The results will help you decide how hot, cold, wet, or windy it might be!

Date:

Astronomy

Dec. 26, 2013 Rise Set
Actual Time 7:53 AM CST 4:48 PM CST
Civil Twilight 7:20 AM CST 5:21 PM CST
Nautical Twilight 6:44 AM CST 5:58 PM CST
Astronomical Twilight 6:09 AM CST 6:33 PM CST
Moon 1:14 AM CST (12/26) 12:32 PM CST (12/26)
Length of Visible Light 10h 00m
Length of Day
8h 54m
Last Quarter, 38% of the Moon is Illuminated
Dec 26
Last Quarter
Jan 1
New
Jan 7
First Quarter
Jan 15
Full
Jan 23
Last Quarter

Hourly Weather History & Observations

Time (CST) Temp. Windchill Dew Point Humidity Pressure Visibility Wind Dir Wind Speed Gust Speed Precip Events Conditions
12:12 AM 21.2 °F 10.1 °F 17.6 °F 86% 30.09 in 10.0 mi SW 10.4 mph - N/A   Overcast
12:33 AM 21.2 °F 10.1 °F 17.6 °F 86% 30.08 in 10.0 mi SW 10.4 mph - N/A   Overcast
12:52 AM 21.2 °F 9.5 °F 17.6 °F 86% 30.07 in 10.0 mi SSW 11.5 mph - N/A   Overcast
1:12 AM 21.2 °F 10.1 °F 17.6 °F 86% 30.07 in 10.0 mi SW 10.4 mph - N/A   Overcast
1:33 AM 21.2 °F 10.9 °F 19.4 °F 93% 30.06 in 10.0 mi SW 9.2 mph - N/A   Overcast
1:52 AM 21.2 °F 10.1 °F 19.4 °F 93% 30.06 in 10.0 mi SW 10.4 mph - N/A   Overcast
2:12 AM 23.0 °F 12.4 °F 19.4 °F 86% 30.05 in 10.0 mi SW 10.4 mph - N/A   Overcast
2:33 AM 24.8 °F 14.6 °F 19.4 °F 80% 30.05 in 10.0 mi SW 10.4 mph - N/A   Overcast
2:52 AM 24.8 °F 14.6 °F 21.2 °F 86% 30.05 in 10.0 mi WSW 10.4 mph - N/A   Overcast
3:12 AM 23.0 °F 15.8 °F 19.4 °F 86% 30.05 in 10.0 mi WSW 5.8 mph - N/A   Mostly Cloudy
3:33 AM 21.2 °F 14.9 °F 17.6 °F 86% 30.05 in 10.0 mi SW 4.6 mph - N/A   Scattered Clouds
3:52 AM 21.2 °F 13.6 °F 17.6 °F 86% 30.06 in 10.0 mi SW 5.8 mph - N/A   Clear
4:12 AM 21.2 °F 16.4 °F 17.6 °F 86% 30.06 in 10.0 mi SW 3.5 mph - N/A   Clear
4:33 AM 21.2 °F 13.6 °F 19.4 °F 93% 30.05 in 10.0 mi WSW 5.8 mph - N/A   Mostly Cloudy
4:52 AM 19.4 °F 12.8 °F 17.6 °F 93% 30.04 in 10.0 mi SW 4.6 mph - N/A   Mostly Cloudy
5:12 AM 19.4 °F 11.5 °F 17.6 °F 93% 30.03 in 10.0 mi SW 5.8 mph - N/A   Unknown
5:33 AM 19.4 °F - 17.6 °F 93% 30.04 in 10.0 mi Calm Calm - N/A   Overcast
5:52 AM 19.4 °F 14.3 °F 17.6 °F 93% 30.03 in 10.0 mi South 3.5 mph - N/A   Mostly Cloudy
6:12 AM 19.4 °F 10.4 °F 17.6 °F 93% 30.04 in 10.0 mi SW 6.9 mph - N/A   Scattered Clouds
6:33 AM 19.4 °F - 15.8 °F 86% 30.04 in 10.0 mi Calm Calm - N/A   Mostly Cloudy
6:52 AM 17.6 °F 12.3 °F 15.8 °F 93% 30.04 in 10.0 mi South 3.5 mph - N/A   Unknown
7:12 AM 19.4 °F 14.3 °F 17.6 °F 93% 30.03 in 10.0 mi SSW 3.5 mph - N/A   Mostly Cloudy
7:33 AM 19.4 °F - 17.6 °F 93% 30.03 in 10.0 mi Calm Calm - N/A   Mostly Cloudy
7:52 AM 19.4 °F 14.3 °F 17.6 °F 93% 30.03 in 10.0 mi WSW 3.5 mph - N/A   Unknown
8:12 AM 21.2 °F - 19.4 °F 93% 30.04 in 10.0 mi Calm Calm - N/A   Clear
8:33 AM 21.2 °F 16.4 °F 19.4 °F 93% 30.04 in 10.0 mi SSW 3.5 mph - N/A   Clear
8:45 AM 21.2 °F 13.6 °F 19.4 °F 93% 30.04 in 10.0 mi SSW 5.8 mph - N/A   Clear
9:01 AM 23.0 °F - 19.4 °F 86% 30.04 in 10.0 mi SSW 1.2 mph - N/A   Clear
9:21 AM 24.8 °F - 19.4 °F 80% 30.04 in 10.0 mi WSW 1.2 mph - N/A   Scattered Clouds
9:41 AM 23.0 °F - 19.4 °F 86% 30.05 in 10.0 mi SSW 1.2 mph - N/A   Unknown
10:01 AM 24.8 °F - 19.4 °F 80% 30.04 in 10.0 mi South 2.3 mph - N/A   Mostly Cloudy
10:21 AM 24.8 °F - 19.4 °F 80% 30.05 in 10.0 mi South 2.3 mph - N/A   Mostly Cloudy
10:41 AM 26.6 °F 21.2 °F 21.2 °F 80% 30.05 in 10.0 mi SSW 4.6 mph - N/A   Overcast
11:01 AM 26.6 °F 22.6 °F 21.2 °F 80% 30.05 in 10.0 mi SSW 3.5 mph - N/A   Overcast
11:21 AM 28.4 °F - 23.0 °F 80% 30.05 in 10.0 mi South 2.3 mph - N/A   Overcast
11:41 AM 28.4 °F 23.3 °F 23.0 °F 80% 30.03 in 10.0 mi South 4.6 mph - N/A   Overcast
12:01 PM 30.2 °F 25.4 °F 23.0 °F 75% 30.02 in 10.0 mi South 4.6 mph - N/A   Overcast
12:35 PM 30.2 °F - 24.8 °F 80% 30.03 in 10.0 mi Calm Calm - 0.02 in   Overcast
12:52 PM 30.2 °F - 24.8 °F 80% 30.03 in 10.0 mi Calm Calm - 0.02 in   Overcast
1:12 PM 30.2 °F 23.4 °F 24.8 °F 80% 30.02 in 10.0 mi SW 6.9 mph - 0.01 in   Scattered Clouds
1:33 PM 32.0 °F 24.2 °F 24.8 °F 75% 30.01 in 10.0 mi SW 9.2 mph - 0.01 in   Scattered Clouds
1:52 PM 32.0 °F 24.2 °F 24.8 °F 75% 30.02 in 10.0 mi WSW 9.2 mph - 0.01 in   Scattered Clouds
2:13 PM 32.0 °F 22.5 °F 24.8 °F 75% 30.02 in 10.0 mi WSW 12.7 mph - N/A   Overcast
2:33 PM 30.2 °F 19.8 °F 24.8 °F 80% 30.02 in 10.0 mi WSW 13.8 mph - N/A   Overcast
2:52 PM 30.2 °F 20.8 °F 24.8 °F 80% 30.02 in 10.0 mi WSW 11.5 mph - N/A   Overcast
3:12 PM 30.2 °F 20.8 °F 24.8 °F 80% 30.02 in 10.0 mi WSW 11.5 mph - N/A   Overcast
3:33 PM 30.2 °F 21.3 °F 24.8 °F 80% 30.04 in 10.0 mi WSW 10.4 mph - N/A   Overcast
3:52 PM 30.2 °F 22.6 °F 24.8 °F 80% 30.04 in 10.0 mi WSW 8.1 mph - N/A   Overcast
4:12 PM 30.2 °F 21.9 °F 24.8 °F 80% 30.05 in 10.0 mi WSW 9.2 mph - N/A   Overcast
4:33 PM 30.2 °F 22.6 °F 24.8 °F 80% 30.05 in 10.0 mi WSW 8.1 mph - N/A   Overcast
4:52 PM 30.2 °F 22.6 °F 24.8 °F 80% 30.07 in 10.0 mi WSW 8.1 mph - N/A   Overcast
5:12 PM 30.2 °F 22.6 °F 24.8 °F 80% 30.07 in 10.0 mi WSW 8.1 mph - N/A   Overcast
5:33 PM 30.2 °F 21.9 °F 26.6 °F 86% 30.08 in 10.0 mi WSW 9.2 mph - N/A   Overcast
5:52 PM 30.2 °F 22.6 °F 26.6 °F 86% 30.08 in 10.0 mi WSW 8.1 mph - N/A   Overcast
6:12 PM 30.2 °F 22.6 °F 26.6 °F 86% 30.10 in 10.0 mi West 8.1 mph - N/A   Overcast
6:32 PM 30.2 °F 22.6 °F 26.6 °F 86% 30.11 in 10.0 mi West 8.1 mph - N/A   Overcast
6:52 PM 30.2 °F 22.6 °F 26.6 °F 86% 30.11 in 10.0 mi West 8.1 mph - N/A   Overcast
7:13 PM 30.2 °F 20.8 °F 26.6 °F 86% 30.11 in 10.0 mi West 11.5 mph - N/A   Overcast
7:32 PM 30.2 °F 20.8 °F 26.6 °F 86% 30.12 in 10.0 mi West 11.5 mph - N/A   Overcast
7:52 PM 30.2 °F 20.8 °F 24.8 °F 80% 30.12 in 10.0 mi West 11.5 mph - N/A   Overcast
8:13 PM 28.4 °F 19.7 °F 24.8 °F 86% 30.13 in 10.0 mi West 9.2 mph - N/A   Overcast
8:32 PM 28.4 °F 22.2 °F 24.8 °F 86% 30.13 in 10.0 mi WSW 5.8 mph - N/A   Overcast
8:52 PM 28.4 °F 23.3 °F 24.8 °F 86% 30.14 in 10.0 mi West 4.6 mph - N/A   Overcast
9:13 PM 28.4 °F 22.2 °F 24.8 °F 86% 30.14 in 10.0 mi WSW 5.8 mph - N/A   Overcast
9:32 PM 28.4 °F 22.2 °F 24.8 °F 86% 30.14 in 10.0 mi WSW 5.8 mph - N/A   Overcast
9:52 PM 26.6 °F 20.0 °F 23.0 °F 86% 30.15 in 10.0 mi West 5.8 mph - N/A   Overcast
10:13 PM 26.6 °F 18.2 °F 23.0 °F 86% 30.14 in 10.0 mi West 8.1 mph - N/A   Overcast
10:32 PM 26.6 °F 20.0 °F 23.0 °F 86% 30.15 in 10.0 mi West 5.8 mph - N/A   Overcast
10:52 PM 26.6 °F 19.1 °F 24.8 °F 93% 30.15 in 10.0 mi WSW 6.9 mph - N/A   Overcast
11:13 PM 26.6 °F 20.0 °F 24.8 °F 93% 30.15 in 10.0 mi WSW 5.8 mph - N/A   Overcast
11:32 PM 26.6 °F 19.1 °F 24.8 °F 93% 30.16 in 10.0 mi West 6.9 mph - N/A   Overcast
11:52 PM 26.6 °F 19.1 °F 24.8 °F 93% 30.15 in 10.0 mi WSW 6.9 mph - N/A   Overcast